{"data":{"norad_id":63895,"epoch":"2026-09-19T10:06:40.914432Z","epoch_age_seconds":240239,"freshness":"STALE","line1":"1 63895U 25095F   26262.42130688  .00004620  00000+0  17724-3 0  9997","line2":"2 63895  42.9962 162.3751 0000298 356.5711   3.5138 15.27585138 77411","mean_motion":15.27585138,"eccentricity":2.98e-5,"inclination_deg":42.9962,"raan_deg":162.3751,"arg_perigee_deg":356.5711,"mean_anomaly_deg":3.5138,"bstar":0.00017724,"rev_number":7741,"period_min":94.266431649455,"perigee_km":482.8292481752,"apogee_km":483.23817394958,"semimajor_km":6861.1707110624,"source":"CELESTRAK","updated_at":"2026-09-21T09:00:35.143546Z"}}